Location: Unspecified
(0.0000°N, 0.0000°E)
Time: 11:12:28
(UTC+00:00)

COSMOS 2501 (GLONASS) - Visible Passes

Search period start: 04 December 2022 00:00
Search period end: 14 December 2022 00:00
Orbit: 19084 x 19175 km, 63.7° (Epoch: 03 December)

Date Brightness Start Highest point End Pass type
(mag) Time Alt. Az. Time Alt. Az. Time Alt. Az.
04 Dec ? 05:56:27 10° S 08:52:33 52° E 10:55:51 10° NNE visible
04 Dec ? 23:58:46 10° NW 01:40:55 33° W 08:57:33 10° NE visible
05 Dec ? 22:05:24 10° NNW 00:14:15 59° W 03:02:06 10° S visible
06 Dec ? 20:20:06 10° NNW 22:47:04 87° W 01:17:22 10° SSE visible
07 Dec ? 18:36:03 10° N 21:19:49 65° E 23:32:53 10° SSE visible
08 Dec ? 12:47:22 10° SW 19:52:57 39° E 21:42:19 10° SSE visible
09 Dec ? 10:43:12 10° SSW 18:27:29 15° E 19:24:04 10° ESE visible
12 Dec ? 05:23:58 10° S 08:20:02 52° E 10:23:22 10° NNE visible
12 Dec ? 23:26:17 10° NW 01:08:25 33° W 08:25:05 10° NE visible
